EW7151 Weather Reports


time (UTC)temp
C
wind
direction
speed
KPH
gust
KPH
rain 1hr
cm
rain 24hr
cm
rain mn
cm
humidity
%
barometer
mb
20260504100522 5 117 3.2 4.8 0.00 0.00 0.00 95 1005.1
20260504081916 7 133 4.8 4.8 0.00 0.00 0.00 90 1005.3
20260504081413 7 90 4.8 4.8 0.00 0.00 0.00 90 1005.1
20260504080908 7 154 1.6 4.8 0.00 0.00 0.00 89 1005.2
20260504080405 7 286 0.0 3.2 0.00 0.00 0.00 89 1005.1
20260504070333 10 84 4.8 4.8 0.00 0.00 0.00 83 1005.9
20260504050721 13 176 3.2 6.4 0.00 0.00 0.00 70 1006.9
20260504050218 13 156 4.8 8.0 0.00 0.00 0.00 69 1006.8
20260504045715 13 180 6.4 6.4 0.00 0.00 0.00 68 1006.7
20260504045215 13 183 3.2 9.7 0.00 0.00 0.00 68 1006.8
20260504044714 13 198 4.8 11.3 0.00 0.00 0.00 67 1006.7
20260504044211 14 176 3.2 12.9 0.00 0.00 0.00 66 1006.7
20260504043708 14 117 0.0 11.3 0.00 0.00 0.00 66 1006.8
20260504043204 14 211 4.8 8.0 0.00 0.00 0.00 65 1006.9
20260504042702 15 210 9.7 12.9 0.00 0.00 0.00 65 1006.8
20260504042158 14 197 6.4 9.7 0.00 0.00 0.00 66 1006.8
20260504041654 15 140 3.2 8.0 0.00 0.00 0.00 65 1006.7
20260504041150 15 165 4.8 11.3 0.00 0.00 0.00 65 1006.8
20260504040647 15 206 3.2 11.3 0.00 0.00 0.00 64 1006.9
20260504040144 14 131 8.0 8.0 0.00 0.00 0.00 65 1006.8
20260504035641 15 162 4.8 8.0 0.00 0.00 0.00 64 1006.8
20260504035138 15 203 4.8 9.7 0.00 0.00 0.00 65 1006.7
20260504034636 15 165 4.8 6.4 0.00 0.00 0.00 64 1006.7
20260504034132 15 159 3.2 8.0 0.00 0.00 0.00 64 1006.9
20260504033630 15 152 0.0 9.7 0.00 0.00 0.00 63 1006.7
20260504033127 15 163 4.8 6.4 0.00 0.00 0.00 63 1006.8
20260504032624 15 154 4.8 9.7 0.00 0.00 0.00 63 1006.9
20260504032121 15 151 0.0 3.2 0.00 0.00 0.00 62 1007.1
20260504031618 15 170 4.8 4.8 0.00 0.00 0.00 61 1007.1
20260504031114 15 130 3.2 4.8 0.00 0.00 0.00 61 1007.2
20260504030611 16 168 6.4 8.0 0.00 0.00 0.00 61 1007.1
20260504030108 16 156 0.0 11.3 0.00 0.00 0.00 60 1007.2
20260504025605 16 199 6.4 14.5 0.00 0.00 0.00 60 1007.2
20260504025101 16 200 8.0 11.3 0.00 0.00 0.00 59 1007.1
20260504024559 16 180 3.2 8.0 0.00 0.00 0.00 59 1007.3
20260504024055 16 180 6.4 12.9 0.00 0.00 0.00 60 1007.2
20260504023552 16 198 6.4 19.3 0.00 0.00 0.00 59 1007.1
20260504023048 16 207 11.3 14.5 0.00 0.00 0.00 59 1007.2
20260504022544 16 146 0.0 9.7 0.00 0.00 0.00 59 1007.1
20260504022040 16 180 4.8 11.3 0.00 0.00 0.00 58 1007.2
20260504021538 16 148 6.4 9.7 0.00 0.00 0.00 58 1007.1
20260504021035 16 210 8.0 9.7 0.00 0.00 0.00 58 1007.1
20260504020531 16 179 12.9 12.9 0.00 0.00 0.00 57 1006.8
20260504020028 16 168 3.2 12.9 0.00 0.00 0.00 57 1006.7
20260504015524 16 180 6.4 6.4 0.00 0.00 0.00 58 1006.8
20260504015020 16 176 3.2 6.4 0.00 0.00 0.00 57 1006.7
20260504014517 16 214 6.4 8.0 0.00 0.00 0.00 57 1006.7
20260504014014 16 196 3.2 6.4 0.00 0.00 0.00 56 1006.7
20260504013512 17 196 3.2 8.0 0.00 0.00 0.00 56 1006.7
20260504013009 16 80 3.2 6.4 0.00 0.00 0.00 56 1006.6
20260504012506 17 170 4.8 6.4 0.00 0.00 0.00 55 1006.6
20260504012004 17 157 3.2 4.8 0.00 0.00 0.00 55 1006.3
20260504011500 17 206 3.2 4.8 0.00 0.00 0.00 54 1006.3
20260504010955 17 215 1.6 3.2 0.00 0.00 0.00 54 1006.4
20260504010452 17 157 0.0 3.2 0.00 0.00 0.00 53 1006.4
20260504005948 17 114 0.0 3.2 0.00 0.00 0.00 53 1006.2
20260504005445 18 143 0.0 4.8 0.00 0.00 0.00 51 1006.3
20260504004943 18 180 0.0 4.8 0.00 0.00 0.00 49 1006.3
20260504004440 18 352 0.0 6.4 0.00 0.00 0.00 49 1006.4
20260504003937 19 198 0.0 4.8 0.00 0.00 0.00 49 1006.3
20260504003433 19 216 4.8 12.9 0.00 0.00 0.00 47 1006.5
20260504002930 20 177 4.8 4.8 0.00 0.00 0.00 47 1006.4
20260504002427 20 230 0.0 9.7 0.00 0.00 0.00 46 1006.4
20260504001924 20 19 3.2 8.0 0.00 0.00 0.00 46 1006.4
20260504001422 20 229 9.7 9.7 0.00 0.00 0.00 45 1006.3
20260504000918 20 251 0.0 9.7 0.00 0.00 0.00 45 1006.4
20260504000416 21 214 4.8 12.9 0.00 0.00 0.00 44 1006.4
20260503235913 21 220 6.4 9.7 0.00 0.00 0.00 45 1006.3
20260503235410 21 191 3.2 8.0 0.00 0.00 0.00 44 1006.5
20260503234908 21 77 4.8 16.1 0.00 0.00 0.00 44 1006.5
20260503234405 21 288 4.8 11.3 0.00 0.00 0.00 44 1006.4
20260503233903 21 287 4.8 9.7 0.00 0.00 0.00 43 1006.4
20260503233359 21 280 4.8 22.5 0.00 0.00 0.00 43 1006.5
20260503232855 21 159 11.3 17.7 0.00 0.00 0.00 42 1006.6
20260503232353 21 283 4.8 17.7 0.00 0.00 0.00 42 1006.5
20260503231851 21 292 14.5 24.1 0.00 0.00 0.00 42 1006.5
20260503231347 21 327 14.5 17.7 0.00 0.00 0.00 41 1006.5
20260503230843 22 304 9.7 14.5 0.00 0.00 0.00 41 1006.7
20260503230340 22 282 3.2 8.0 0.00 0.00 0.00 42 1006.7
20260503225839 21 297 3.2 9.7 0.00 0.00 0.00 43 1006.6
20260503225334 21 278 1.6 29.0 0.00 0.00 0.00 43 1006.7
20260503224830 21 196 4.8 20.9 0.00 0.00 0.00 43 1006.6
20260503224328 21 193 17.7 25.7 0.00 0.00 0.00 42 1006.7
20260503223826 22 301 0.0 9.7 0.00 0.00 0.00 42 1006.7
20260503223323 21 180 9.7 27.4 0.00 0.00 0.00 42 1006.9
20260503222818 21 197 6.4 14.5 0.00 0.00 0.00 42 1006.9
20260503222317 21 201 19.3 32.2 0.00 0.00 0.00 42 1006.9
20260503221815 21 203 12.9 24.1 0.00 0.00 0.00 41 1006.8
20260503221313 21 202 6.4 37.0 0.00 0.00 0.00 42 1006.7
20260503220809 21 180 4.8 12.9 0.00 0.00 0.00 43 1006.8
20260503220306 20 153 8.0 29.0 0.00 0.00 0.00 45 1006.8
20260503215803 20 176 6.4 35.4 0.00 0.00 0.00 45 1006.9
20260503215259 21 219 14.5 20.9 0.00 0.00 0.00 43 1007.1
20260503214757 20 184 11.3 29.0 0.00 0.00 0.00 43 1007.1
20260503214254 20 183 8.0 20.9 0.00 0.00 0.00 43 1006.9
20260503213752 20 175 11.3 25.7 0.00 0.00 0.00 43 1007.3
20260503213249 20 183 8.0 29.0 0.00 0.00 0.00 43 1007.2
20260503212746 20 223 30.6 41.8 0.00 0.00 0.00 42 1007.5
20260503212244 20 178 20.9 30.6 0.00 0.00 0.00 43 1007.5
20260503211741 20 200 1.6 25.7 0.00 0.00 0.00 43 1007.4
20260503211237 20 174 19.3 32.2 0.00 0.00 0.00 43 1007.6
20260503210732 20 167 17.7 35.4 0.00 0.00 0.00 43 1007.9
20260503210230 20 179 20.9 35.4 0.00 0.00 0.00 42 1007.7
20260503205726 20 180 9.7 27.4 0.00 0.00 0.00 42 1007.8
20260503205222 20 206 17.7 24.1 0.00 0.00 0.00 41 1008.1
20260503204718 20 202 25.7 37.0 0.00 0.00 0.00 42 1008.3
20260503204217 21 312 9.7 20.9 0.00 0.00 0.00 41 1008.2
20260503203713 20 225 20.9 38.6 0.00 0.00 0.00 42 1008.5
20260503203211 20 265 6.4 25.7 0.00 0.00 0.00 41 1008.4
20260503202708 20 220 37.0 37.0 0.00 0.00 0.00 42 1008.6
20260503202206 20 195 12.9 46.7 0.00 0.00 0.00 41 1008.7
20260503201703 18 140 3.2 37.0 0.00 0.00 0.00 43 1008.8
20260503201201 19 218 9.7 41.8 0.00 0.00 0.00 43 1009.0
20260503200657 20 247 11.3 35.4 0.00 0.00 0.00 42 1008.9
20260503200153 20 183 11.3 41.8 0.00 0.00 0.00 41 1009.1
20260503195650 19 195 8.0 45.1 0.00 0.00 0.00 44 1009.3
20260503195147 18 187 17.7 35.4 0.00 0.00 0.00 48 1009.2
20260503194644 18 179 11.3 29.0 0.00 0.00 0.00 50 1009.2
20260503194139 18 171 20.9 35.4 0.00 0.00 0.00 49 1009.7
20260503193637 18 252 9.7 30.6 0.00 0.00 0.00 50 1009.8
20260503193132 18 208 20.9 33.8 0.00 0.00 0.00 50 1009.6
20260503192628 18 209 12.9 37.0 0.00 0.00 0.00 52 1009.7
20260503192124 17 185 11.3 35.4 0.00 0.00 0.00 54 1010.2
20260503191621 17 215 9.7 35.4 0.00 0.00 0.00 52 1010.0
20260503191118 17 192 22.5 41.8 0.00 0.00 0.00 51 1009.9
20260503190615 17 178 14.5 20.9 0.00 0.00 0.00 51 1010.0
20260503190112 17 182 16.1 29.0 0.00 0.00 0.00 52 1009.7
20260503185608 17 183 16.1 33.8 0.00 0.00 0.00 52 1009.8
20260503185108 16 285 0.0 24.1 0.00 0.00 0.00 53 1009.6
20260503184604 16 161 12.9 35.4 0.00 0.00 0.00 53 1010.0
20260503184101 16 192 14.5 33.8 0.00 0.00 0.00 52 1010.2
20260503183557 16 138 14.5 29.0 0.00 0.00 0.00 53 1010.3
20260503183055 16 179 14.5 33.8 0.00 0.00 0.00 52 1010.2
20260503182553 16 175 24.1 40.2 0.00 0.00 0.00 51 1010.2
20260503182051 16 195 8.0 32.2 0.00 0.00 0.00 52 1010.3
20260503181547 16 180 8.0 35.4 0.00 0.00 0.00 53 1010.8
20260503181044 15 182 9.7 45.1 0.00 0.00 0.00 55 1010.8
20260503180541 16 186 17.7 38.6 0.00 0.00 0.00 53 1010.8
20260503180038 16 180 14.5 22.5 0.00 0.00 0.00 55 1010.9
20260503175536 16 193 4.8 17.7 0.00 0.00 0.00 56 1011.0
20260503175033 15 184 9.7 30.6 0.00 0.00 0.00 60 1011.0
20260503174530 14 135 14.5 25.7 0.00 0.00 0.00 61 1011.0
20260503174026 13 137 19.3 29.0 0.00 0.00 0.00 63 1011.2
20260503173521 13 181 14.5 27.4 0.00 0.00 0.00 63 1011.4
20260503173017 13 206 16.1 35.4 0.00 0.00 0.00 63 1011.7
20260503172516 13 158 19.3 35.4 0.00 0.00 0.00 64 1011.8
20260503172012 13 203 4.8 29.0 0.00 0.00 0.00 65 1012.1
20260503171509 13 196 11.3 35.4 0.00 0.00 0.00 61 1012.2
20260503171006 13 179 6.4 17.7 0.00 0.00 0.00 63 1012.4
20260503170502 13 132 12.9 30.6 0.00 0.00 0.00 64 1012.6
20260503150855 11 185 4.8 25.7 0.00 0.00 0.00 63 1014.7
20260503150351 12 235 14.5 29.0 0.00 0.00 0.00 60 1014.7
20260503140315 11 177 3.2 17.7 0.00 0.00 0.00 62 1014.5
20260503131244 10 207 9.7 20.9 0.00 0.00 0.00 63 1015.2
20260503130742 9 191 8.0 17.7 0.00 0.00 0.00 63 1015.0
20260503130239 9 356 0.0 22.5 0.00 0.00 0.00 63 1015.2
20260503120205 8 197 11.3 14.5 0.00 0.00 0.00 64 1015.2
20260503110633 8 205 12.9 19.3 0.00 0.00 0.00 62 1014.6
20260503110130 8 180 4.8 20.9 0.00 0.00 0.00 62 1014.7